Regional Weather Roundup
Issued by NWS Burlington, VT

Home | Current Version | Previous Version | Text Only | Print | Product List | Glossary On
Versions: 1 2 3 4 5 6 7 8 9 10 11 12 13 14 15 16 17 18 19 20 21 22 23 24 25 26 27 28 29 30 31 32 33 34 35 36 37 38 39 40 41 42 43 44 45 46 47 48 49 50
000
ASUS41 KBTV 041330
RWRBTV
VERMONT REGIONAL WEATHER ROUNDUP
NATIONAL WEATHER SERVICE BURLINGTON VT
800 AM EST WED MAR 04 2015

NOTE: "FAIR" INDICATES FEW OR NO CLOUDS BELOW 12,000 FEET WITH NO
SIGNIFICANT WEATHER AND/OR OBSTRUCTIONS TO VISIBILITY.

* THESE REPORTS ARE NOT UNDER NWS QUALITY CONTROL AND/OR DO NOT
  REPORT WEATHER SUCH AS PRECIPITATION AND FOG.

VTZ001>019-041400-
_____VERMONT_____


CITY           SKY/WX    TMP DP  RH WIND       PRES   REMARKS
BURLINGTON     CLOUDY    35  24  64 W3        29.69R
MONTPELIER     CLOUDY    31  26  82 W6        29.68R
MORRISVILLE    CLOUDY    33  24  69 VRB5      29.68R
ST. JOHNSBURY*   N/A     28  25  88 MISG      29.64R
LYNDONVILLE*   MIX PCPN  30  25  83 CALM      29.64S
MIDDLEBURY*    CLOUDY    35  27  75 S9        29.69S
RUTLAND*       CLOUDY    34  28  80 NW3       29.71R
SPRINGFIELD    CLOUDY    37  27  67 W6        29.69R
HIGHGATE*      CLOUDY    31  25  76 W3        29.69S
NEWPORT*       LGT SNOW  28  24  85 E8        29.65R
BENNINGTON       N/A    N/A N/A N/A MISG      29.75R
SUTTON*          N/A     28 N/A N/A MISG        N/A
GALLUP MILLS*    N/A     28 N/A N/A MISG        N/A
MT. MANSFIELD*   N/A     19 N/A N/A CALM        N/A

_____LAKE CHAMPLAIN_____


CITY           SKY/WX    TMP DP  RH WIND       PRES   REMARKS
BURTON ISLAND*   N/A     32  28  86 E5          N/A
COLCHESTER RF*   N/A     36  25  64 W20G31      N/A
DIAMOND ISL*     N/A     36  27  69 SW10        N/A

$$

NYZ007-026>031-035-052-083-041400-
_____NORTHERN NEW YORK_____


CITY           SKY/WX    TMP DP  RH WIND       PRES   REMARKS
PLATTSBURGH    CLOUDY    34  23  64 VRB7      29.69R
SARANAC LAKE   CLOUDY    26  21  81 W12G17    29.65S WCI  16
MASSENA        CLOUDY    31  24  75 SW15G21   29.73R
OGDENSBURG*    CLOUDY    32  25  74 W10G20    29.74R
POTSDAM*       CLOUDY    30  25  80 W12       29.73R
STARK FALLS*     N/A     27 N/A N/A W1          N/A
WATERTOWN      CLOUDY    33  25  72 SW9       29.77R
FT DRUM        CLOUDY    30  25  80 W12       29.76R
ALBANY         CLOUDY    36  27  69 W14       29.79R
GLENS FALLS    CLOUDY    34  29  82 S9        29.73S

$$
NHZ002-005-011-041400-
_____NEW HAMPSHIRE_____


CITY           SKY/WX    TMP DP  RH WIND       PRES   REMARKS
LEBANON        FLURRIES  37  27  67 W13G20    29.67R
KEENE          CLOUDY    37  30  75 CALM      29.72R
MT WASHINGTON  SNOW      10  10 100 NW63G72     N/A  VSB 0   WCI -19
PLYMOUTH       CLOUDY    29  29 100 E3        29.66R
WHITEFIELD     CLOUDY    32  25  75 SW6       29.64R

$$

_____REGIONAL QUEBEC LOCATIONS_____


CITY           SKY/WX    TMP DP  RH WIND       PRES   REMARKS
MONTREAL       FLURRIES  27  21  80 W9        29.68R
QUEBEC CITY    PTSUNNY   21  18  86 W14       29.59R WCI   8
SHERBROOKE     FLURRIES  27  21  80 W16G22    29.64R WCI  14

_____REGIONAL ONTARIO LOCATIONS_____


CITY           SKY/WX    TMP DP  RH WIND       PRES   REMARKS
OTTAWA         FLURRIES  28  21  74 SW13      29.69R WCI  18

______KEY______
VSB  - VISIBILITY IN MILES
WCI  - WIND CHILL INDEX
HX   - HEAT INDEX
$$
NNNN


USA.gov is the U.S. government's official web portal to all federal, state and local government web resources and services.